Punta Gorda, FL

6:59 PM EST on December 09, 2019 (GMT -0500)
Charlotte County

Weather History for KPGD - September, 2019

Change the Weather History Date:

Tuesday, September 3, 2019

  Actual Average Record
Temperature  
Mean Temperature 84 °F -  
Max Temperature 91 °F 88 °F 93 °F (2004)
Min Temperature 77 °F 72 °F 71 °F (1999)
Cooling Degree Days 19    
Growing Degree Days 34 (Base 50)    
Moisture  
Dew Point 76 °F    
Average Humidity 81    
Maximum Humidity 100    
Minimum Humidity 55    
Precipitation  
Precipitation 0.04 in - - ()
Sea Level Pressure  
Sea Level Pressure 29.77 in    
Wind  
Wind Speed 10 mph (NNW)    
Max Wind Speed 15 mph    
Max Gust Speed 22 mph    
Visibility 10 miles    
Events Rain    
Averages and records for this station are not official NWS values.
T = Trace of Precipitation, MM = Missing Value Source: NWS Daily Summary

Daily Weather History Graph

Daily Weather History Graph

Search for Another Location

Airport or City:

Astronomy

Sep. 03, 2019 Rise Set
Actual Time 7:08 AM EDT 7:46 PM EDT
Civil Twilight 6:44 AM EDT 8:09 PM EDT
Nautical Twilight 6:16 AM EDT 8:37 PM EDT
Astronomical Twilight 5:48 AM EDT 9:05 PM EDT
Moon 11:34 AM EDT (9/3) 11:10 PM EDT (9/3)
Length of Visible Light 13h 25m
Length of Day
12h 37m
Waxing Crescent, 24% of the Moon is Illuminated
Sep 3
Waxing Crescent
Sep 5
First Quarter
Sep 14
Full
Sep 21
Last Quarter
Sep 28
New

Hourly Weather History & Observations

Time (EDT) Temp. Heat Index Dew Point Humidity Pressure Visibility Wind Dir Wind Speed Gust Speed Precip Events Conditions
12:53 AM 79.0 °F - 75.9 °F 90% 29.79 in 10.0 mi North 10.4 mph - N/A   Clear
1:53 AM 79.0 °F - 75.9 °F 90% 29.78 in 10.0 mi North 9.2 mph - N/A   Clear
2:53 AM 78.1 °F - 77.0 °F 96% 29.75 in 10.0 mi North 8.1 mph - N/A   Clear
3:53 AM 78.1 °F - 77.0 °F 96% 29.74 in 10.0 mi NNW 9.2 mph - N/A   Clear
4:53 AM 77.0 °F - 77.0 °F 100% 29.75 in 10.0 mi North 11.5 mph - N/A   Clear
5:53 AM 77.0 °F - 77.0 °F 100% 29.75 in 10.0 mi NNW 10.4 mph - N/A   Clear
6:53 AM 77.0 °F - 77.0 °F 100% 29.76 in 10.0 mi NNW 9.2 mph - N/A   Clear
7:53 AM 78.1 °F - 77.0 °F 96% 29.78 in 10.0 mi NNW 11.5 mph - N/A   Clear
8:53 AM 81.0 °F 87.3 °F 75.9 °F 85% 29.80 in 10.0 mi North 10.4 mph - N/A   Partly Cloudy
9:53 AM 82.9 °F 91.8 °F 77.0 °F 82% 29.80 in 10.0 mi NNW 12.7 mph 18.4 mph N/A   Partly Cloudy
10:53 AM 86.0 °F 96.0 °F 75.9 °F 72% 29.82 in 10.0 mi North 9.2 mph - N/A   Scattered Clouds
11:53 AM 88.0 °F 97.5 °F 75.0 °F 65% 29.81 in 10.0 mi NNW 10.4 mph - N/A   Mostly Cloudy
12:53 PM 89.1 °F 100.2 °F 75.9 °F 65% 29.79 in 10.0 mi NW 15.0 mph - N/A   Scattered Clouds
1:53 PM 91.0 °F 100.4 °F 73.9 °F 57% 29.78 in 10.0 mi North 13.8 mph - N/A   Scattered Clouds
2:53 PM 91.0 °F 101.6 °F 75.0 °F 59% 29.76 in 10.0 mi North 10.4 mph - N/A   Partly Cloudy
3:53 PM 91.0 °F 99.3 °F 73.0 °F 55% 29.74 in 10.0 mi North 11.5 mph - N/A   Partly Cloudy
4:53 PM 88.0 °F 98.5 °F 75.9 °F 67% 29.74 in 8.0 mi NNW 12.7 mph - 0.00 in Rain Light Rain
5:06 PM 82.9 °F 94.8 °F 80.1 °F 91% 29.74 in 2.5 mi North 6.9 mph - 0.04 in Rain Rain
5:13 PM 84.9 °F 97.5 °F 79.0 °F 82% 29.73 in 10.0 mi NW 6.9 mph - 0.04 in Rain Light Rain
5:53 PM 88.0 °F 98.5 °F 75.9 °F 67% 29.74 in 10.0 mi NW 15.0 mph 21.9 mph 0.04 in   Scattered Clouds
6:53 PM 84.0 °F 94.8 °F 78.1 °F 82% 29.75 in 10.0 mi NNW 11.5 mph - N/A   Clear
7:53 PM 81.0 °F 86.7 °F 75.0 °F 82% 29.78 in 10.0 mi NNW 10.4 mph - N/A   Clear
8:53 PM 80.1 °F 85.1 °F 75.0 °F 85% 29.80 in 10.0 mi NNW 10.4 mph - N/A   Clear
9:53 PM 80.1 °F 84.5 °F 73.9 °F 81% 29.81 in 10.0 mi NW 8.1 mph - N/A   Clear
10:53 PM 79.0 °F - 73.9 °F 84% 29.82 in 10.0 mi NW 9.2 mph - N/A   Clear
11:53 PM 79.0 °F - 75.0 °F 88% 29.82 in 10.0 mi NW 5.8 mph - N/A   Clear